Le nostre stazioni meteo in Italia

Pubblicità
Il mio iltempo24.it
Crotone, Italia (16350): Temperatura & dewpoint: 09.11.2018 08:00:00 - 15.11.2018 08:00:00 (CET)Crotone, Italia (16350): velocità del vento: 09.11.2018 08:00:00 - 15.11.2018 08:00:00 (CET)Crotone, Italia (16350): direzione del vento: 09.11.2018 08:00:00 - 15.11.2018 08:00:00 (CET)Crotone, Italia (16350): visibility: 09.11.2018 08:00:00 - 15.11.2018 08:00:00 (CET)
Data & Tempo tt [°C] td [°C] ff [km/h] ff [kn] dd vv [km]
15.11.2018 08:00:00 15,0 10,0 13 7 N 10
15.11.2018 07:00:00 - - - - - -
15.11.2018 06:00:00 - - - - - -
15.11.2018 05:00:00 - - - - - -
15.11.2018 04:00:00 - - - - - -
15.11.2018 03:00:00 - - - - - -
15.11.2018 02:00:00 - - - - - -
15.11.2018 01:00:00 - - - - - -
15.11.2018 00:00:00 - - - - - -
14.11.2018 23:00:00 - - - - - -
14.11.2018 22:00:00 - - - - - -
14.11.2018 21:00:00 - - - - - -
14.11.2018 20:00:00 14,0 10,0 8 4 O 10
14.11.2018 19:00:00 14,0 10,0 11 6 NO 10
14.11.2018 18:00:00 15,0 11,0 11 6 NNO 10
14.11.2018 17:00:00 15,0 11,0 9 5 NNO 10
14.11.2018 16:00:00 17,0 12,0 11 6 N 10
14.11.2018 15:00:00 18,0 11,0 21 11 N 10
14.11.2018 14:00:00 19,0 10,0 16 9 N 10
14.11.2018 13:00:00 18,0 12,0 21 11 NNE 10
14.11.2018 12:00:00 18,0 13,0 21 11 NNE 10
14.11.2018 11:00:00 18,0 12,0 21 11 N 10
14.11.2018 10:00:00 17,0 11,0 18 10 NNE 10
14.11.2018 09:00:00 16,0 11,0 11 6 N 10
14.11.2018 08:00:00 - - - - - -
14.11.2018 07:00:00 15,0 11,0 9 5 N 10
14.11.2018 06:00:00 - - - - - -
14.11.2018 05:00:00 - - - - - -
14.11.2018 04:00:00 - - - - - -
14.11.2018 03:00:00 - - - - - -
14.11.2018 02:00:00 - - - - - -
14.11.2018 01:00:00 - - - - - -
14.11.2018 00:00:00 - - - - - -
13.11.2018 23:00:00 - - - - - -
13.11.2018 22:00:00 - - - - - -
13.11.2018 21:00:00 - - - - - -
13.11.2018 20:00:00 13,0 12,0 4 2 NO 10
13.11.2018 19:00:00 14,0 12,0 8 4 NO 10
13.11.2018 18:00:00 15,0 13,0 5 3 NNO 10
13.11.2018 17:00:00 15,0 13,0 8 4 NNE 10
13.11.2018 16:00:00 17,0 13,0 8 4 ENE 10
13.11.2018 15:00:00 17,0 14,0 9 5 NE 10
13.11.2018 14:00:00 20,0 12,0 4 2 - 10
13.11.2018 13:00:00 20,0 12,0 4 2 - 10
13.11.2018 12:00:00 19,0 12,0 5 3 - 10
13.11.2018 11:00:00 18,0 13,0 8 4 NNE 10
13.11.2018 10:00:00 17,0 15,0 11 6 NNE 10
13.11.2018 09:00:00 16,0 16,0 5 3 NNE 10
13.11.2018 08:00:00 15,0 15,0 4 2 - 10
13.11.2018 07:00:00 - - - - - -
13.11.2018 06:00:00 - - - - - -
13.11.2018 05:00:00 - - - - - -
13.11.2018 04:00:00 - - - - - -
13.11.2018 03:00:00 - - - - - -
13.11.2018 02:00:00 - - - - - -
13.11.2018 01:00:00 - - - - - -
13.11.2018 00:00:00 - - - - - -
12.11.2018 23:00:00 - - - - - -
12.11.2018 22:00:00 - - - - - -
12.11.2018 21:00:00 - - - - - -
12.11.2018 20:00:00 14,0 13,0 4 2 NO 10
12.11.2018 19:00:00 15,0 14,0 4 2 O 10
12.11.2018 18:00:00 15,0 14,0 0 0 N 10
12.11.2018 17:00:00 16,0 15,0 5 3 NE 10
12.11.2018 16:00:00 18,0 15,0 8 4 ENE 10
12.11.2018 15:00:00 19,0 14,0 8 4 NE 10
12.11.2018 14:00:00 19,0 14,0 9 5 ENE 10
12.11.2018 13:00:00 19,0 14,0 8 4 NE 10
12.11.2018 12:00:00 19,0 14,0 8 4 ENE 10
12.11.2018 11:00:00 19,0 15,0 8 4 NE 10
12.11.2018 10:00:00 18,0 15,0 0 0 NNE 10
12.11.2018 09:00:00 16,0 15,0 8 4 N 10
12.11.2018 08:00:00 15,0 15,0 5 3 NNE 10
12.11.2018 07:00:00 - - - - - -
12.11.2018 06:00:00 - - - - - -
12.11.2018 05:00:00 - - - - - -
12.11.2018 04:00:00 - - - - - -
12.11.2018 03:00:00 - - - - - -
12.11.2018 02:00:00 - - - - - -
12.11.2018 01:00:00 - - - - - -
12.11.2018 00:00:00 - - - - - -
11.11.2018 23:00:00 - - - - - -
11.11.2018 22:00:00 - - - - - -
11.11.2018 21:00:00 - - - - - -
11.11.2018 20:00:00 13,0 13,0 4 2 NO 10
11.11.2018 19:00:00 14,0 14,0 2 1 N 10
11.11.2018 18:00:00 15,0 14,0 4 2 ENE 10
11.11.2018 17:00:00 17,0 15,0 5 3 ENE 10
11.11.2018 16:00:00 19,0 14,0 8 4 E 10
11.11.2018 15:00:00 19,0 14,0 9 5 E 10
11.11.2018 14:00:00 20,0 15,0 9 5 E 10
11.11.2018 13:00:00 20,0 15,0 8 4 ENE 10
11.11.2018 12:00:00 19,0 15,0 8 4 NE 10
11.11.2018 11:00:00 19,0 15,0 8 4 ENE 10
11.11.2018 10:00:00 18,0 15,0 11 6 NNE 10
11.11.2018 09:00:00 15,0 14,0 4 2 N 10
11.11.2018 08:00:00 - - - - - -
11.11.2018 07:00:00 15,0 13,0 4 2 - 10
11.11.2018 06:00:00 - - - - - -
11.11.2018 05:00:00 - - - - - -
11.11.2018 04:00:00 - - - - - -
11.11.2018 03:00:00 - - - - - -
11.11.2018 02:00:00 - - - - - -
11.11.2018 01:00:00 - - - - - -
11.11.2018 00:00:00 - - - - - -
10.11.2018 23:00:00 - - - - - -
10.11.2018 22:00:00 - - - - - -
10.11.2018 21:00:00 13,0 13,0 9 5 NO 10
10.11.2018 20:00:00 13,0 13,0 4 2 N 10
10.11.2018 19:00:00 14,0 13,0 0 0 N 10
10.11.2018 18:00:00 14,0 13,0 0 0 N 10
10.11.2018 17:00:00 16,0 14,0 5 3 ESE 10
10.11.2018 16:00:00 18,0 14,0 8 4 SSE 10
10.11.2018 15:00:00 18,0 13,0 11 6 SE 10
10.11.2018 14:00:00 19,0 13,0 15 8 ESE 10
10.11.2018 13:00:00 18,0 13,0 8 4 E 10
10.11.2018 12:00:00 18,0 12,0 9 5 E 10
10.11.2018 11:00:00 18,0 12,0 9 5 ESE 10
10.11.2018 10:00:00 17,0 14,0 5 3 NE 10
10.11.2018 09:00:00 16,0 14,0 4 2 - 10
10.11.2018 08:00:00 14,0 14,0 4 2 - 10
10.11.2018 07:00:00 11,0 11,0 4 2 NNO 10
10.11.2018 06:00:00 - - - - - -
10.11.2018 05:00:00 - - - - - -
10.11.2018 04:00:00 - - - - - -
10.11.2018 03:00:00 - - - - - -
10.11.2018 02:00:00 - - - - - -
10.11.2018 01:00:00 - - - - - -
10.11.2018 00:00:00 - - - - - -
09.11.2018 23:00:00 - - - - - -
09.11.2018 22:00:00 - - - - - -
09.11.2018 21:00:00 - - - - - -
09.11.2018 20:00:00 13,0 12,0 4 2 O 10
09.11.2018 19:00:00 - - - - - -
09.11.2018 18:00:00 14,0 13,0 0 0 N 10
09.11.2018 17:00:00 16,0 12,0 5 3 NE 10
09.11.2018 16:00:00 17,0 13,0 11 6 ENE 10
09.11.2018 15:00:00 18,0 13,0 13 7 NE 10
09.11.2018 14:00:00 19,0 13,0 9 5 ENE 10
09.11.2018 13:00:00 19,0 12,0 8 4 NE 10
09.11.2018 12:00:00 19,0 11,0 11 6 NE 10
09.11.2018 11:00:00 18,0 12,0 13 7 NNE 10
09.11.2018 10:00:00 18,0 12,0 11 6 N 10
09.11.2018 09:00:00 17,0 12,0 9 5 N 10
09.11.2018 08:00:00 16,0 12,0 8 4 N 10

tt = Temperatura
td = dewpoint
ff = velocità del vento
dd = direzione del vento
vv = visibility

Stazioni seguenti

WeatherPro
AMSI
MeteoEarth